ProjectID,Date,Electric Generation,Electric Utility Import,Facility Electric Load
,YYYY-MM-DD,kW,kW,kW
384,2016-09-01,0.0,,0.0
384,2016-09-02,0.0,,0.0
384,2016-09-03,0.0,,0.0
384,2016-09-04,0.0,,0.0
384,2016-09-05,0.0,,0.0
384,2016-09-06,0.0,,0.0
384,2016-09-07,0.0,,0.0
384,2016-09-08,0.0,,0.0
384,2016-09-09,0.0,,0.0
384,2016-09-10,0.0,,0.0
384,2016-09-11,0.0,,0.0
384,2016-09-12,0.0,,0.0
384,2016-09-13,0.0,,0.0
384,2016-09-14,0.0,,0.0
384,2016-09-15,0.0,,0.0
384,2016-09-16,0.0,,0.0
384,2016-09-17,0.0,,0.0
384,2016-09-18,0.0,,0.0
384,2016-09-19,0.0,,0.0
384,2016-09-20,0.0,,0.0
384,2016-09-21,0.0,,0.0
384,2016-09-22,0.0,,0.0
384,2016-09-23,0.0,,0.0
384,2016-09-24,0.0,,0.0
384,2016-09-25,0.0,,0.0
384,2016-09-26,0.0,,0.0
384,2016-09-27,33.13125,,33.13125
384,2016-09-28,17.85375,,17.85375
384,2016-09-29,10.503333333333334,,10.503333333333334
384,2016-09-30,8.271666666666667,,8.271666666666667
384,2016-10-01,9.119166666666667,,9.119166666666667
384,2016-10-02,10.590416666666666,,10.590416666666666
384,2016-10-03,26.873749999999998,,26.873749999999998
384,2016-10-04,20.75208333333333,,20.75208333333333
384,2016-10-05,36.35541666666666,,36.35541666666666
384,2016-10-06,42.43208333333333,,42.43208333333333
384,2016-10-07,40.316250000000004,,40.316250000000004
384,2016-10-08,12.235,,12.235
384,2016-10-09,4.39125,,4.39125
384,2016-10-10,44.580833333333324,,44.580833333333324
384,2016-10-11,41.882083333333334,,41.882083333333334
384,2016-10-12,29.69791666666667,,29.69791666666667
384,2016-10-13,23.967500000000005,,23.967500000000005
384,2016-10-14,41.37083333333333,,41.37083333333333
384,2016-10-15,39.54208333333333,,39.54208333333333
384,2016-10-16,28.2375,,28.2375
384,2016-10-17,31.556666666666658,,31.556666666666658
384,2016-10-18,34.827916666666674,,34.827916666666674
384,2016-10-19,30.622916666666665,,30.622916666666665
384,2016-10-20,17.81833333333333,,17.81833333333333
384,2016-10-21,8.175833333333335,,8.175833333333335
384,2016-10-22,8.057500000000001,,8.057500000000001
384,2016-10-23,35.60874999999999,,35.60874999999999
384,2016-10-24,25.312083333333334,,25.312083333333334
384,2016-10-25,26.040833333333335,,26.040833333333335
384,2016-10-26,31.848333333333333,,31.848333333333333
384,2016-10-27,4.307083333333334,,4.307083333333334
384,2016-10-28,21.62541666666667,,21.62541666666667
384,2016-10-29,26.388749999999998,,26.388749999999998
384,2016-10-30,26.395833333333332,,26.395833333333332
384,2016-10-31,33.40416666666667,,33.40416666666667
384,2016-11-01,29.227500000000003,,29.227500000000003
384,2016-11-02,27.159999999999997,,27.159999999999997
384,2016-11-03,12.549166666666666,,12.549166666666666
384,2016-11-04,30.02541666666667,,30.02541666666667
384,2016-11-05,30.12125,,30.12125
384,2016-11-06,28.00583333333334,,28.00583333333334
384,2016-11-07,30.890833333333337,,30.890833333333337
384,2016-11-08,28.889166666666664,,28.889166666666664
384,2016-11-09,6.576250000000001,,6.576250000000001
384,2016-11-10,28.3875,,28.3875
384,2016-11-11,28.263749999999998,,28.263749999999998
384,2016-11-12,23.808750000000003,,23.808750000000003
384,2016-11-13,26.987916666666663,,26.987916666666663
384,2016-11-14,24.49416666666667,,24.49416666666667
384,2016-11-15,2.7129166666666666,,2.7129166666666666
384,2016-11-16,25.57041666666667,,25.57041666666667
384,2016-11-17,25.46041666666667,,25.46041666666667
384,2016-11-18,25.81125,,25.81125
384,2016-11-19,25.374999999999996,,25.374999999999996
384,2016-11-20,10.871249999999998,,10.871249999999998
384,2016-11-21,9.887916666666667,,9.887916666666667
384,2016-11-22,23.901666666666667,,23.901666666666667
384,2016-11-23,18.080416666666668,,18.080416666666668
384,2016-11-24,9.124166666666666,,9.124166666666666
384,2016-11-25,12.383333333333333,,12.383333333333333
384,2016-11-26,17.85875,,17.85875
384,2016-11-27,0.0,,0.0
384,2016-11-28,22.782916666666665,,22.782916666666665
384,2016-11-29,1.4237499999999998,,1.4237499999999998
384,2016-11-30,0.0,,0.0
384,2016-12-01,18.932916666666667,,18.932916666666667
384,2016-12-02,20.5575,,20.5575
384,2016-12-03,19.62125,,19.62125
384,2016-12-04,22.735416666666666,,22.735416666666666
384,2016-12-05,18.78375,,18.78375
384,2016-12-06,11.562500000000002,,11.562500000000002
384,2016-12-07,5.6429166666666655,,5.6429166666666655
384,2016-12-08,9.677083333333334,,9.677083333333334
384,2016-12-09,21.145833333333332,,21.145833333333332
384,2016-12-10,14.978749999999998,,14.978749999999998
384,2016-12-11,12.750416666666666,,12.750416666666666
384,2016-12-12,5.029166666666667,,5.029166666666667
384,2016-12-13,18.018333333333334,,18.018333333333334
384,2016-12-14,21.175,,21.175
384,2016-12-15,16.79,,16.79
384,2016-12-16,18.175,,18.175
384,2016-12-17,0.10833333333333332,,0.10833333333333332
384,2016-12-18,3.4316666666666666,,3.4316666666666666
384,2016-12-19,19.745,,19.745
384,2016-12-20,15.644583333333335,,15.644583333333335
384,2016-12-21,12.837499999999999,,12.837499999999999
384,2016-12-22,12.832083333333335,,12.832083333333335
384,2016-12-23,19.84583333333333,,19.84583333333333
384,2016-12-24,3.377083333333333,,3.377083333333333
384,2016-12-25,21.7025,,21.7025
384,2016-12-26,5.34375,,5.34375
384,2016-12-27,11.635833333333332,,11.635833333333332
384,2016-12-28,7.9487499999999995,,7.9487499999999995
384,2016-12-29,1.8941666666666668,,1.8941666666666668
384,2016-12-30,13.648333333333333,,13.648333333333333
384,2016-12-31,0.0,,0.0
384,2017-01-01,21.722499999999997,,21.722499999999997
384,2017-01-02,4.112916666666666,,4.112916666666666
384,2017-01-03,3.2816666666666663,,3.2816666666666663
384,2017-01-04,11.679583333333335,,11.679583333333335
384,2017-01-05,15.101666666666665,,15.101666666666665
384,2017-01-06,6.56625,,6.56625
384,2017-01-07,0.3358333333333334,,0.3358333333333334
384,2017-01-08,0.37833333333333335,,0.37833333333333335
384,2017-01-09,1.0233333333333334,,1.0233333333333334
384,2017-01-10,0.1775,,0.1775
384,2017-01-11,0.0,,0.0
384,2017-01-12,15.9975,,15.9975
384,2017-01-13,23.565416666666668,,23.565416666666668
384,2017-01-14,12.910000000000002,,12.910000000000002
384,2017-01-15,7.710833333333333,,7.710833333333333
384,2017-01-16,25.592916666666667,,25.592916666666667
384,2017-01-17,2.964166666666667,,2.964166666666667
384,2017-01-18,4.710416666666666,,4.710416666666666
384,2017-01-19,22.460416666666664,,22.460416666666664
384,2017-01-20,7.845416666666666,,7.845416666666666
384,2017-01-21,18.015,,18.015
384,2017-01-22,7.872916666666668,,7.872916666666668
384,2017-01-23,3.7320833333333336,,3.7320833333333336
384,2017-01-24,3.5991666666666666,,3.5991666666666666
384,2017-01-25,25.793333333333337,,25.793333333333337
384,2017-01-26,11.505,,11.505
384,2017-01-27,9.26625,,9.26625
384,2017-01-28,10.795,,10.795
384,2017-01-29,26.916666666666675,,26.916666666666675
384,2017-01-30,21.253333333333334,,21.253333333333334
384,2017-01-31,0.0,,0.0
384,2017-02-01,12.864583333333336,,12.864583333333336
384,2017-02-02,23.466250000000002,,23.466250000000002
384,2017-02-03,22.53333333333333,,22.53333333333333
384,2017-02-04,33.86458333333333,,33.86458333333333
384,2017-02-05,13.162916666666668,,13.162916666666668
384,2017-02-06,32.345000000000006,,32.345000000000006
384,2017-02-07,4.87875,,4.87875
384,2017-02-08,25.874583333333334,,25.874583333333334
384,2017-02-09,0.05375,,0.05375
384,2017-02-10,1.4166666666666663,,1.4166666666666663
384,2017-02-11,4.131666666666667,,4.131666666666667
384,2017-02-12,0.44416666666666665,,0.44416666666666665
384,2017-02-13,9.805833333333334,,9.805833333333334
384,2017-02-14,13.415833333333332,,13.415833333333332
384,2017-02-15,13.889999999999999,,13.889999999999999
384,2017-02-16,31.674999999999997,,31.674999999999997
384,2017-02-17,38.07625,,38.07625
384,2017-02-18,35.691250000000004,,35.691250000000004
384,2017-02-19,0.0,,0.0
384,2017-02-20,39.04291666666666,,39.04291666666666
384,2017-02-21,32.26416666666667,,32.26416666666667
384,2017-02-22,21.171250000000004,,21.171250000000004
384,2017-02-23,23.840833333333336,,23.840833333333336
384,2017-02-24,35.84250000000001,,35.84250000000001
384,2017-02-25,26.905,,26.905
384,2017-02-26,38.24999999999999,,38.24999999999999
384,2017-02-27,33.755833333333335,,33.755833333333335
384,2017-02-28,0.0,,0.0
384,2017-03-01,13.117916666666666,,13.117916666666666
384,2017-03-02,0.0,,0.0
384,2017-03-03,35.080416666666665,,35.080416666666665
384,2017-03-04,35.00416666666667,,35.00416666666667
384,2017-03-05,50.025,,50.025
384,2017-03-06,43.495000000000005,,43.495000000000005
384,2017-03-07,12.108333333333334,,12.108333333333334
384,2017-03-08,38.11208333333334,,38.11208333333334
384,2017-03-09,47.285833333333336,,47.285833333333336
384,2017-03-10,0.7920833333333334,,0.7920833333333334
384,2017-03-11,3.5566666666666666,,3.5566666666666666
384,2017-03-12,10.504583333333333,,10.504583333333333
384,2017-03-13,34.43375,,34.43375
384,2017-03-14,0.04875000000000001,,0.04875000000000001
384,2017-03-15,0.465,,0.465
384,2017-03-16,0.0,,0.0
384,2017-03-17,3.697083333333333,,3.697083333333333
384,2017-03-18,1.4675,,1.4675
384,2017-03-19,19.266249999999996,,19.266249999999996
384,2017-03-20,0.0,,0.0
384,2017-03-21,41.199999999999996,,41.199999999999996
384,2017-03-22,55.596666666666664,,55.596666666666664
384,2017-03-23,55.85291666666666,,55.85291666666666
384,2017-03-24,22.826249999999998,,22.826249999999998
384,2017-03-25,22.360000000000003,,22.360000000000003
384,2017-03-26,10.881666666666668,,10.881666666666668
384,2017-03-27,18.398750000000003,,18.398750000000003
384,2017-03-28,8.455416666666666,,8.455416666666666
384,2017-03-29,52.84708333333333,,52.84708333333333
384,2017-03-30,44.56916666666667,,44.56916666666667
384,2017-03-31,4.624583333333334,,4.624583333333334
384,2017-04-01,18.892500000000002,,18.892500000000002
384,2017-04-02,57.35166666666667,,57.35166666666667
384,2017-04-03,49.27916666666667,,49.27916666666667
384,2017-04-04,14.751249999999999,,14.751249999999999
384,2017-04-05,35.225,,35.225
384,2017-04-06,6.041249999999999,,6.041249999999999
384,2017-04-07,18.621666666666666,,18.621666666666666
384,2017-04-08,61.285833333333336,,61.285833333333336
384,2017-04-09,59.65416666666667,,59.65416666666667
384,2017-04-10,57.59041666666667,,57.59041666666667
384,2017-04-11,55.29208333333332,,55.29208333333332
384,2017-04-12,29.37833333333333,,29.37833333333333
384,2017-04-13,51.36166666666667,,51.36166666666667
384,2017-04-14,52.51499999999999,,52.51499999999999
384,2017-04-15,36.400416666666665,,36.400416666666665
384,2017-04-16,47.154583333333335,,47.154583333333335
384,2017-04-17,33.795,,33.795
384,2017-04-18,61.44125,,61.44125
384,2017-04-19,35.115,,35.115
384,2017-04-20,41.382083333333334,,41.382083333333334
384,2017-04-21,18.405833333333334,,18.405833333333334
384,2017-04-22,16.507916666666667,,16.507916666666667
384,2017-04-23,57.013749999999995,,57.013749999999995
384,2017-04-24,26.784583333333334,,26.784583333333334
384,2017-04-25,12.27875,,12.27875
384,2017-04-26,0.0,,0.0
384,2017-04-27,36.39291666666667,,36.39291666666667
384,2017-04-28,55.255,,55.255
384,2017-04-29,50.61916666666667,,50.61916666666667
384,2017-04-30,28.83333333333334,,28.83333333333334
384,2017-05-01,40.45125,,40.45125
384,2017-05-02,50.41541666666666,,50.41541666666666
384,2017-05-03,46.72208333333333,,46.72208333333333
384,2017-05-04,62.26291666666666,,62.26291666666666
384,2017-05-05,8.0,,8.0
384,2017-05-06,48.83833333333334,,48.83833333333334
384,2017-05-07,27.246250000000003,,27.246250000000003
384,2017-05-08,56.81666666666667,,56.81666666666667
384,2017-05-09,46.568333333333335,,46.568333333333335
384,2017-05-10,46.05291666666667,,46.05291666666667
384,2017-05-11,50.47958333333333,,50.47958333333333
384,2017-05-12,46.53,,46.53
384,2017-05-13,10.360000000000001,,10.360000000000001
384,2017-05-14,55.315416666666664,,55.315416666666664
384,2017-05-15,55.58625000000001,,55.58625000000001
384,2017-05-16,57.965,,57.965
384,2017-05-17,62.87458333333333,,62.87458333333333
384,2017-05-18,61.815416666666664,,61.815416666666664
384,2017-05-19,58.39750000000001,,58.39750000000001
384,2017-05-20,27.6575,,27.6575
384,2017-05-21,65.75541666666668,,65.75541666666668
384,2017-05-22,7.897083333333334,,7.897083333333334
384,2017-05-23,38.145833333333336,,38.145833333333336
384,2017-05-24,36.96625,,36.96625
384,2017-05-25,10.333333333333334,,10.333333333333334
384,2017-05-26,41.91916666666666,,41.91916666666666
384,2017-05-27,38.2125,,38.2125
384,2017-05-28,53.40916666666667,,53.40916666666667
384,2017-05-29,14.674999999999999,,14.674999999999999
384,2017-05-30,0.0,,0.0
384,2017-05-31,48.20458333333334,,48.20458333333334
384,2017-06-01,47.86999999999998,,47.86999999999998
384,2017-06-02,57.95208333333334,,57.95208333333334
384,2017-06-03,52.785416666666656,,52.785416666666656
384,2017-06-04,30.706250000000008,,30.706250000000008
384,2017-06-05,24.43625,,24.43625
384,2017-06-06,15.345833333333331,,15.345833333333331
384,2017-06-07,54.790833333333325,,54.790833333333325
384,2017-06-08,44.402499999999996,,44.402499999999996
384,2017-06-09,58.208333333333336,,58.208333333333336
384,2017-06-10,57.66166666666667,,57.66166666666667
384,2017-06-11,64.87874999999998,,64.87874999999998
384,2017-06-12,62.786249999999995,,62.786249999999995
384,2017-06-13,53.609166666666674,,53.609166666666674
384,2017-06-14,56.365833333333335,,56.365833333333335
384,2017-06-15,62.595,,62.595
384,2017-06-16,14.655000000000001,,14.655000000000001
384,2017-06-17,19.518333333333338,,19.518333333333338
384,2017-06-18,58.196666666666665,,58.196666666666665
384,2017-06-19,51.00125,,51.00125
384,2017-06-20,64.86375,,64.86375
384,2017-06-21,53.2175,,53.2175
384,2017-06-22,64.11583333333333,,64.11583333333333
384,2017-06-23,30.630416666666672,,30.630416666666672
384,2017-06-24,55.735833333333325,,55.735833333333325
384,2017-06-25,56.94625000000001,,56.94625000000001
384,2017-06-26,55.53125,,55.53125
384,2017-06-27,51.059583333333336,,51.059583333333336
384,2017-06-28,62.81125000000001,,62.81125000000001
384,2017-06-29,59.278333333333336,,59.278333333333336
384,2017-06-30,57.12375,,57.12375
384,2017-07-01,47.57333333333333,,47.57333333333333
384,2017-07-02,63.129999999999995,,63.129999999999995
384,2017-07-03,53.80458333333334,,53.80458333333334
384,2017-07-04,48.56125,,48.56125
384,2017-07-05,61.45416666666668,,61.45416666666668
384,2017-07-06,31.58333333333334,,31.58333333333334
384,2017-07-07,27.02333333333333,,27.02333333333333
384,2017-07-08,51.33708333333334,,51.33708333333334
384,2017-07-09,58.28791666666667,,58.28791666666667
384,2017-07-10,59.76708333333334,,59.76708333333334
384,2017-07-11,37.498749999999994,,37.498749999999994
384,2017-07-12,50.75,,50.75
384,2017-07-13,42.28666666666667,,42.28666666666667
384,2017-07-14,9.9725,,9.9725
384,2017-07-15,42.03666666666667,,42.03666666666667
384,2017-07-16,57.67083333333332,,57.67083333333332
384,2017-07-17,55.30833333333334,,55.30833333333334
384,2017-07-18,62.25291666666667,,62.25291666666667
384,2017-07-19,54.41916666666666,,54.41916666666666
384,2017-07-20,48.362083333333324,,48.362083333333324
384,2017-07-21,58.4375,,58.4375
384,2017-07-22,49.76458333333333,,49.76458333333333
384,2017-07-23,23.259583333333335,,23.259583333333335
384,2017-07-24,19.804583333333333,,19.804583333333333
384,2017-07-25,29.990833333333338,,29.990833333333338
384,2017-07-26,59.69791666666666,,59.69791666666666
384,2017-07-27,28.329583333333336,,28.329583333333336
384,2017-07-28,46.66791666666666,,46.66791666666666
384,2017-07-29,24.014583333333334,,24.014583333333334
384,2017-07-30,63.89166666666668,,63.89166666666668
384,2017-07-31,59.110833333333325,,59.110833333333325
384,2017-08-01,58.99875,,58.99875
384,2017-08-02,31.99875,,31.99875
384,2017-08-03,57.940000000000005,,57.940000000000005
384,2017-08-04,52.473749999999995,,52.473749999999995
384,2017-08-05,33.359583333333326,,33.359583333333326
384,2017-08-06,45.66291666666668,,45.66291666666668
384,2017-08-07,7.2995833333333335,,7.2995833333333335
384,2017-08-08,40.70541666666667,,40.70541666666667
384,2017-08-09,59.8125,,59.8125
384,2017-08-10,57.389166666666675,,57.389166666666675
384,2017-08-11,50.674583333333324,,50.674583333333324
384,2017-08-12,31.44791666666667,,31.44791666666667
384,2017-08-13,58.83833333333333,,58.83833333333333
384,2017-08-14,34.42333333333333,,34.42333333333333
384,2017-08-15,14.990833333333333,,14.990833333333333
384,2017-08-16,52.253750000000004,,52.253750000000004
384,2017-08-17,54.553333333333335,,54.553333333333335
384,2017-08-18,14.791666666666666,,14.791666666666666
384,2017-08-19,50.53791666666667,,50.53791666666667
384,2017-08-20,57.696666666666665,,57.696666666666665
384,2017-08-21,47.184999999999995,,47.184999999999995
384,2017-08-22,50.731666666666676,,50.731666666666676
384,2017-08-23,50.32166666666666,,50.32166666666666
384,2017-08-24,55.04416666666666,,55.04416666666666
384,2017-08-25,38.85166666666668,,38.85166666666668
384,2017-08-26,56.6825,,56.6825
384,2017-08-27,53.77583333333332,,53.77583333333332
384,2017-08-28,43.24208333333333,,43.24208333333333
384,2017-08-29,9.101666666666667,,9.101666666666667
384,2017-08-30,56.084166666666654,,56.084166666666654
384,2017-08-31,42.51958333333334,,42.51958333333334
384,2017-09-01,57.303333333333335,,57.303333333333335
384,2017-09-02,26.956666666666663,,26.956666666666663
384,2017-09-03,17.6925,,17.6925
384,2017-09-04,53.42208333333334,,53.42208333333334
384,2017-09-05,48.61833333333333,,48.61833333333333
384,2017-09-06,9.860833333333334,,9.860833333333334
384,2017-09-07,45.37916666666667,,45.37916666666667
384,2017-09-08,41.8675,,41.8675
384,2017-09-09,50.77208333333334,,50.77208333333334
384,2017-09-10,47.471666666666664,,47.471666666666664
384,2017-09-11,49.12625,,49.12625
384,2017-09-12,39.89166666666666,,39.89166666666666
384,2017-09-13,39.745,,39.745
384,2017-09-14,30.79916666666666,,30.79916666666666
384,2017-09-15,43.16416666666667,,43.16416666666667
384,2017-09-16,26.27208333333333,,26.27208333333333
384,2017-09-17,40.74375,,40.74375
384,2017-09-18,14.284999999999998,,14.284999999999998
384,2017-09-19,21.298333333333336,,21.298333333333336
384,2017-09-20,25.33708333333333,,25.33708333333333
384,2017-09-21,29.872916666666665,,29.872916666666665
384,2017-09-22,46.49333333333334,,46.49333333333334
384,2017-09-23,45.845000000000006,,45.845000000000006
384,2017-09-24,43.42583333333332,,43.42583333333332
384,2017-09-25,42.083333333333336,,42.083333333333336
384,2017-09-26,33.878750000000004,,33.878750000000004
384,2017-09-27,36.76208333333333,,36.76208333333333
384,2017-09-28,44.639166666666675,,44.639166666666675
384,2017-09-29,31.57166666666667,,31.57166666666667
384,2017-09-30,22.493750000000006,,22.493750000000006
384,2017-10-01,44.37875,,44.37875
384,2017-10-02,43.76416666666666,,43.76416666666666
384,2017-10-03,40.35125,,40.35125
384,2017-10-04,42.029999999999994,,42.029999999999994
384,2017-10-05,33.75375,,33.75375
384,2017-10-06,33.51416666666666,,33.51416666666666
384,2017-10-07,31.00791666666667,,31.00791666666667
384,2017-10-08,8.498333333333333,,8.498333333333333
384,2017-10-09,5.074166666666667,,5.074166666666667
384,2017-10-10,38.42041666666667,,38.42041666666667
384,2017-10-11,22.465000000000003,,22.465000000000003
384,2017-10-12,25.587500000000002,,25.587500000000002
384,2017-10-13,21.09875,,21.09875
384,2017-10-14,19.77208333333333,,19.77208333333333
384,2017-10-15,14.339999999999998,,14.339999999999998
384,2017-10-16,17.951666666666668,,17.951666666666668
384,2017-10-17,38.940000000000005,,38.940000000000005
384,2017-10-18,35.51041666666667,,35.51041666666667
384,2017-10-19,36.4725,,36.4725
384,2017-10-20,35.68875,,35.68875
384,2017-10-21,32.82416666666666,,32.82416666666666
384,2017-10-22,33.660000000000004,,33.660000000000004
384,2017-10-23,26.166666666666668,,26.166666666666668
384,2017-10-24,11.041666666666666,,11.041666666666666
384,2017-10-25,11.455416666666665,,11.455416666666665
384,2017-10-26,8.566666666666666,,8.566666666666666
384,2017-10-27,32.935,,32.935
384,2017-10-28,32.64041666666666,,32.64041666666666
384,2017-10-29,2.904166666666667,,2.904166666666667
384,2017-10-30,27.315,,27.315
384,2017-10-31,27.73166666666667,,27.73166666666667
384,2017-11-01,12.628750000000002,,12.628750000000002
384,2017-11-02,23.754166666666666,,23.754166666666666
384,2017-11-03,24.81125,,24.81125
384,2017-11-04,26.29041666666667,,26.29041666666667
384,2017-11-05,4.708333333333334,,4.708333333333334
384,2017-11-06,5.464583333333334,,5.464583333333334
384,2017-11-07,10.2825,,10.2825
384,2017-11-08,11.577916666666665,,11.577916666666665
384,2017-11-09,25.515833333333333,,25.515833333333333
384,2017-11-10,25.70208333333333,,25.70208333333333
384,2017-11-11,30.30874999999999,,30.30874999999999
384,2017-11-12,22.264166666666668,,22.264166666666668
384,2017-11-13,8.285,,8.285
384,2017-11-14,16.50916666666667,,16.50916666666667
384,2017-11-15,20.470000000000002,,20.470000000000002
384,2017-11-16,14.745833333333335,,14.745833333333335
384,2017-11-17,27.617499999999996,,27.617499999999996
384,2017-11-18,6.965833333333333,,6.965833333333333
384,2017-11-19,20.050833333333333,,20.050833333333333
384,2017-11-20,17.15625,,17.15625
384,2017-11-21,24.8425,,24.8425
384,2017-11-22,8.326666666666666,,8.326666666666666
384,2017-11-23,25.729166666666668,,25.729166666666668
384,2017-11-24,24.036249999999995,,24.036249999999995
384,2017-11-25,24.060000000000002,,24.060000000000002
384,2017-11-26,22.527499999999993,,22.527499999999993
384,2017-11-27,21.807083333333335,,21.807083333333335
384,2017-11-28,22.45958333333333,,22.45958333333333
384,2017-11-29,21.332083333333333,,21.332083333333333
384,2017-11-30,14.875,,14.875
384,2017-12-01,21.963333333333335,,21.963333333333335
384,2017-12-02,19.282500000000002,,19.282500000000002
384,2017-12-03,5.88,,5.88
384,2017-12-04,18.16541666666667,,18.16541666666667
384,2017-12-05,6.453333333333333,,6.453333333333333
384,2017-12-06,13.010416666666666,,13.010416666666666
384,2017-12-07,22.574166666666667,,22.574166666666667
384,2017-12-08,10.6825,,10.6825
384,2017-12-09,0.64375,,0.64375
384,2017-12-10,0.18083333333333337,,0.18083333333333337
384,2017-12-11,2.3070833333333334,,2.3070833333333334
384,2017-12-12,6.083333333333333,,6.083333333333333
384,2017-12-13,16.68625,,16.68625
384,2017-12-14,1.790416666666667,,1.790416666666667
384,2017-12-15,2.4166666666666665,,2.4166666666666665
384,2017-12-16,0.7866666666666667,,0.7866666666666667
384,2017-12-17,8.0325,,8.0325
384,2017-12-18,11.902499999999998,,11.902499999999998
384,2017-12-19,14.422916666666666,,14.422916666666666
384,2017-12-20,13.067916666666667,,13.067916666666667
384,2017-12-21,20.302083333333336,,20.302083333333336
384,2017-12-22,3.3529166666666668,,3.3529166666666668
384,2017-12-23,1.3412499999999998,,1.3412499999999998
384,2017-12-24,12.367083333333335,,12.367083333333335
384,2017-12-25,17.597499999999997,,17.597499999999997
384,2017-12-26,17.93875,,17.93875
384,2017-12-27,22.088333333333335,,22.088333333333335
384,2017-12-28,23.213333333333335,,23.213333333333335
384,2017-12-29,19.845,,19.845
384,2017-12-30,1.7254166666666666,,1.7254166666666666
384,2017-12-31,2.997083333333333,,2.997083333333333
384,2018-01-01,5.822916666666667,,5.822916666666667
384,2018-01-02,12.200416666666667,,12.200416666666667
384,2018-01-03,19.364583333333336,,19.364583333333336
384,2018-01-04,0.47375000000000006,,0.47375000000000006
384,2018-01-05,17.6275,,17.6275
384,2018-01-06,18.876250000000002,,18.876250000000002
384,2018-01-07,19.28791666666667,,19.28791666666667
384,2018-01-08,9.7475,,9.7475
384,2018-01-09,18.924583333333334,,18.924583333333334